Time,TemperatureF,DewpointF,PressureIn,WindDirection,WindDirectionDegrees,WindSpeedMPH,WindSpeedGustMPH,Humidity,HourlyPrecipIn,Conditions,Clouds,dailyrainin,SoftwareType,DateUTC
2013-01-04 00:05:00,32.9,31.0,30.25,WSW,248,0.0,-999.0,91,-99.99,,,0.00,weatherlink.com 1.10,2013-01-04 08:05:00,
2013-01-04 00:20:00,32.7,31.0,30.24,WSW,248,0.0,-999.0,92,-99.99,,,0.00,weatherlink.com 1.10,2013-01-04 08:20:00,
2013-01-04 00:35:00,32.4,30.0,30.24,WSW,248,0.0,-999.0,92,-99.99,,,0.00,weatherlink.com 1.10,2013-01-04 08:35:00,
2013-01-04 00:50:00,32.1,30.0,30.23,WSW,248,0.0,-999.0,92,-99.99,,,0.00,weatherlink.com 1.10,2013-01-04 08:50:00,
2013-01-04 01:05:00,31.8,30.0,30.24,WSW,248,0.0,-999.0,92,-99.99,,,0.00,weatherlink.com 1.10,2013-01-04 09:05:00,
2013-01-04 01:20:00,31.8,30.0,30.24,WSW,248,0.0,-999.0,92,-99.99,,,0.00,weatherlink.com 1.10,2013-01-04 09:20:00,
2013-01-04 01:35:00,31.6,30.0,30.24,WSW,248,0.0,-999.0,92,-99.99,,,0.00,weatherlink.com 1.10,2013-01-04 09:35:00,
2013-01-04 01:50:00,31.5,30.0,30.24,WSW,248,0.0,-999.0,92,-99.99,,,0.00,weatherlink.com 1.10,2013-01-04 09:50:00,
2013-01-04 02:05:00,31.6,30.0,30.24,WSW,248,0.0,-999.0,93,-99.99,,,0.00,weatherlink.com 1.10,2013-01-04 10:05:00,
2013-01-04 02:20:00,31.6,30.0,30.24,WSW,249,0.0,-999.0,93,-99.99,,,0.00,weatherlink.com 1.10,2013-01-04 10:20:00,
2013-01-04 02:35:00,31.5,30.0,30.24,WSW,249,0.0,-999.0,93,-99.99,,,0.00,weatherlink.com 1.10,2013-01-04 10:35:00,
2013-01-04 02:50:00,31.3,30.0,30.25,WSW,249,0.0,-999.0,93,-99.99,,,0.00,weatherlink.com 1.10,2013-01-04 10:50:00,
2013-01-04 03:05:00,31.8,30.0,30.24,WSW,249,0.0,-999.0,93,-99.99,,,0.00,weatherlink.com 1.10,2013-01-04 11:05:00,
2013-01-04 03:20:00,31.9,30.0,30.24,WSW,249,0.0,-999.0,93,-99.99,,,0.00,weatherlink.com 1.10,2013-01-04 11:20:00,
2013-01-04 03:35:00,32.1,30.0,30.23,WSW,249,0.0,-999.0,93,-99.99,,,0.00,weatherlink.com 1.10,2013-01-04 11:35:00,
2013-01-04 03:50:00,32.2,31.0,30.23,WSW,249,0.0,-999.0,94,-99.99,,,0.00,weatherlink.com 1.10,2013-01-04 11:50:00,
2013-01-04 04:05:00,32.1,31.0,30.23,WSW,249,0.0,-999.0,94,-99.99,,,0.00,weatherlink.com 1.10,2013-01-04 12:05:00,
2013-01-04 04:20:00,31.8,30.0,30.22,WSW,249,0.0,-999.0,94,-99.99,,,0.00,weatherlink.com 1.10,2013-01-04 12:20:00,
2013-01-04 04:35:00,31.5,30.0,30.22,WSW,249,0.0,-999.0,93,-99.99,,,0.00,weatherlink.com 1.10,2013-01-04 12:35:00,
2013-01-04 04:50:00,31.2,30.0,30.22,WSW,249,0.0,-999.0,94,-99.99,,,0.00,weatherlink.com 1.10,2013-01-04 12:50:00,
2013-01-04 05:05:00,31.2,30.0,30.23,WSW,249,0.0,-999.0,94,-99.99,,,0.00,weatherlink.com 1.10,2013-01-04 13:05:00,
2013-01-04 05:20:00,31.2,30.0,30.24,WSW,249,0.0,-999.0,94,-99.99,,,0.00,weatherlink.com 1.10,2013-01-04 13:20:00,
2013-01-04 05:35:00,31.2,30.0,30.24,WSW,249,0.0,-999.0,94,-99.99,,,0.00,weatherlink.com 1.10,2013-01-04 13:35:00,
2013-01-04 05:50:00,31.2,30.0,30.24,WSW,249,0.0,-999.0,94,-99.99,,,0.00,weatherlink.com 1.10,2013-01-04 13:50:00,
2013-01-04 06:05:00,31.2,30.0,30.25,WSW,249,0.0,-999.0,94,-99.99,,,0.00,weatherlink.com 1.10,2013-01-04 14:05:00,
2013-01-04 06:20:00,30.9,29.0,30.25,WSW,249,0.0,-999.0,94,-99.99,,,0.00,weatherlink.com 1.10,2013-01-04 14:20:00,
2013-01-04 06:35:00,30.9,29.0,30.25,WSW,249,0.0,-999.0,94,-99.99,,,0.00,weatherlink.com 1.10,2013-01-04 14:35:00,
2013-01-04 06:50:00,30.7,29.0,30.24,WSW,249,0.0,-999.0,94,-99.99,,,0.00,weatherlink.com 1.10,2013-01-04 14:50:00,
2013-01-04 07:05:00,30.4,29.0,30.24,WSW,249,0.0,-999.0,94,-99.99,,,0.00,weatherlink.com 1.10,2013-01-04 15:05:00,
2013-01-04 07:20:00,30.3,29.0,30.24,WSW,249,0.0,-999.0,94,-99.99,,,0.00,weatherlink.com 1.10,2013-01-04 15:20:00,
2013-01-04 07:35:00,30.0,29.0,30.25,WSW,249,0.0,-999.0,94,-99.99,,,0.00,weatherlink.com 1.10,2013-01-04 15:35:00,
2013-01-04 07:50:00,30.0,29.0,30.25,WSW,249,0.0,-999.0,94,-99.99,,,0.00,weatherlink.com 1.10,2013-01-04 15:50:00,
2013-01-04 08:05:00,30.3,29.0,30.25,WSW,249,0.0,-999.0,95,-99.99,,,0.00,weatherlink.com 1.10,2013-01-04 16:05:00,
2013-01-04 08:20:00,31.6,30.0,30.26,WSW,249,0.0,-999.0,95,-99.99,,,0.00,weatherlink.com 1.10,2013-01-04 16:20:00,
2013-01-04 08:35:00,33.7,33.0,30.26,WSW,249,0.0,-999.0,95,-99.99,,,0.00,weatherlink.com 1.10,2013-01-04 16:35:00,
2013-01-04 08:51:00,35.5,34.0,30.27,WSW,250,0.0,-999.0,95,-99.99,,,0.00,weatherlink.com 1.10,2013-01-04 16:51:00,
2013-01-04 09:06:00,37.3,36.0,30.27,WSW,250,0.0,-999.0,96,-99.99,,,0.00,weatherlink.com 1.10,2013-01-04 17:06:00,
2013-01-04 09:21:00,39.2,38.0,30.27,WSW,250,0.0,-999.0,96,-99.99,,,0.00,weatherlink.com 1.10,2013-01-04 17:21:00,
2013-01-04 09:36:00,40.9,40.0,30.27,WSW,250,0.0,-999.0,96,-99.99,,,0.00,weatherlink.com 1.10,2013-01-04 17:36:00,
2013-01-04 09:51:00,42.5,41.0,30.27,WSW,250,0.0,-999.0,93,-99.99,,,0.00,weatherlink.com 1.10,2013-01-04 17:51:00,
2013-01-04 10:06:00,44.3,39.0,30.27,WSW,249,0.0,-999.0,83,-99.99,,,0.00,weatherlink.com 1.10,2013-01-04 18:06:00,
2013-01-04 10:21:00,46.5,38.0,30.27,WSW,249,0.0,-999.0,73,-99.99,,,0.00,weatherlink.com 1.10,2013-01-04 18:21:00,
2013-01-04 10:36:00,48.8,38.0,30.26,WSW,249,0.0,-999.0,67,-99.99,,,0.00,weatherlink.com 1.10,2013-01-04 18:36:00,
2013-01-04 10:51:00,50.7,38.0,30.25,SSW,210,0.0,-999.0,63,-99.99,,,0.00,weatherlink.com 1.10,2013-01-04 18:51:00,
2013-01-04 11:06:00,52.3,39.0,30.25,SSW,210,0.0,-999.0,62,-99.99,,,0.00,weatherlink.com 1.10,2013-01-04 19:06:00,
2013-01-04 11:21:00,53.8,40.0,30.24,SSE,157,1.0,-999.0,59,-99.99,,,0.00,weatherlink.com 1.10,2013-01-04 19:21:00,
2013-01-04 11:36:00,55.3,39.0,30.23,SSE,165,1.0,-999.0,55,-99.99,,,0.00,weatherlink.com 1.10,2013-01-04 19:36:00,
2013-01-04 11:52:00,56.9,33.0,30.22,SSE,162,0.0,-999.0,41,-99.99,,,0.00,weatherlink.com 1.10,2013-01-04 19:52:00,
2013-01-04 12:07:00,58.3,32.0,30.22,South,171,2.0,-999.0,37,-99.99,,,0.00,weatherlink.com 1.10,2013-01-04 20:07:00,
2013-01-04 12:22:00,59.2,31.0,30.21,SSE,148,0.0,-999.0,35,-99.99,,,0.00,weatherlink.com 1.10,2013-01-04 20:22:00,
2013-01-04 12:37:00,60.2,31.0,30.20,South,182,0.0,-999.0,33,-99.99,,,0.00,weatherlink.com 1.10,2013-01-04 20:37:00,
2013-01-04 12:52:00,60.7,31.0,30.18,South,173,1.0,-999.0,33,-99.99,,,0.00,weatherlink.com 1.10,2013-01-04 20:52:00,
2013-01-04 13:07:00,61.2,30.0,30.18,SW,216,1.0,-999.0,31,-99.99,,,0.00,weatherlink.com 1.10,2013-01-04 21:07:00,
2013-01-04 13:22:00,61.5,31.0,30.17,SSW,210,0.0,-999.0,32,-99.99,,,0.00,weatherlink.com 1.10,2013-01-04 21:22:00,
2013-01-04 13:37:00,61.8,29.0,30.17,SW,232,3.0,-999.0,29,-99.99,,,0.00,weatherlink.com 1.10,2013-01-04 21:37:00,
2013-01-04 13:52:00,62.0,31.0,30.16,South,184,1.0,-999.0,31,-99.99,,,0.00,weatherlink.com 1.10,2013-01-04 21:52:00,
2013-01-04 14:07:00,62.3,31.0,30.16,South,186,3.0,-999.0,31,-99.99,,,0.00,weatherlink.com 1.10,2013-01-04 22:07:00,
2013-01-04 14:22:00,62.4,31.0,30.15,South,182,0.0,-999.0,31,-99.99,,,0.00,weatherlink.com 1.10,2013-01-04 22:22:00,
2013-01-04 14:37:00,62.6,32.0,30.15,SSE,162,0.0,-999.0,32,-99.99,,,0.00,weatherlink.com 1.10,2013-01-04 22:37:00,
2013-01-04 14:52:00,62.3,33.0,30.15,SSE,148,0.0,-999.0,34,-99.99,,,0.00,weatherlink.com 1.10,2013-01-04 22:52:00,
2013-01-04 15:22:00,61.3,35.0,30.15,SSE,167,0.0,-999.0,38,-99.99,,,0.00,weatherlink.com 1.10,2013-01-04 23:22:00,
2013-01-04 15:37:00,60.9,37.0,30.15,South,182,0.0,-999.0,42,-99.99,,,0.00,weatherlink.com 1.10,2013-01-04 23:37:00,
2013-01-04 15:52:00,59.6,38.0,30.15,SSE,163,0.0,-999.0,45,-99.99,,,0.00,weatherlink.com 1.10,2013-01-04 23:52:00,
2013-01-04 16:07:00,58.9,40.0,30.15,SSE,163,0.0,-999.0,49,-99.99,,,0.00,weatherlink.com 1.10,2013-01-05 00:07:00,
2013-01-04 16:22:00,57.5,40.0,30.15,SSE,164,0.0,-999.0,52,-99.99,,,0.00,weatherlink.com 1.10,2013-01-05 00:22:00,
2013-01-04 16:37:00,54.5,39.0,30.15,SSE,164,0.0,-999.0,57,-99.99,,,0.00,weatherlink.com 1.10,2013-01-05 00:37:00,
2013-01-04 16:52:00,51.4,39.0,30.15,SSE,166,0.0,-999.0,62,-99.99,,,0.00,weatherlink.com 1.10,2013-01-05 00:52:00,
2013-01-04 17:07:00,48.9,38.0,30.16,SSE,167,0.0,-999.0,67,-99.99,,,0.00,weatherlink.com 1.10,2013-01-05 01:07:00,
2013-01-04 17:23:00,47.1,38.0,30.16,SSE,167,0.0,-999.0,70,-99.99,,,0.00,weatherlink.com 1.10,2013-01-05 01:23:00,
2013-01-04 17:38:00,46.0,37.0,30.16,SSE,168,0.0,-999.0,72,-99.99,,,0.00,weatherlink.com 1.10,2013-01-05 01:38:00,
2013-01-04 17:53:00,44.6,37.0,30.17,South,169,0.0,-999.0,75,-99.99,,,0.00,weatherlink.com 1.10,2013-01-05 01:53:00,
2013-01-04 18:08:00,43.8,37.0,30.18,South,169,0.0,-999.0,77,-99.99,,,0.00,weatherlink.com 1.10,2013-01-05 02:08:00,
2013-01-04 18:23:00,42.9,36.0,30.18,South,170,0.0,-999.0,78,-99.99,,,0.00,weatherlink.com 1.10,2013-01-05 02:23:00,
2013-01-04 18:38:00,42.1,36.0,30.18,South,171,0.0,-999.0,80,-99.99,,,0.00,weatherlink.com 1.10,2013-01-05 02:38:00,
2013-01-04 18:53:00,41.6,36.0,30.18,South,171,0.0,-999.0,81,-99.99,,,0.00,weatherlink.com 1.10,2013-01-05 02:53:00,
2013-01-04 19:08:00,40.9,36.0,30.18,South,172,0.0,-999.0,82,-99.99,,,0.00,weatherlink.com 1.10,2013-01-05 03:08:00,
2013-01-04 19:23:00,40.3,36.0,30.18,South,172,0.0,-999.0,83,-99.99,,,0.00,weatherlink.com 1.10,2013-01-05 03:23:00,
2013-01-04 19:38:00,39.6,35.0,30.19,South,173,0.0,-999.0,83,-99.99,,,0.00,weatherlink.com 1.10,2013-01-05 03:38:00,
2013-01-04 19:53:00,39.1,34.0,30.19,South,173,0.0,-999.0,83,-99.99,,,0.00,weatherlink.com 1.10,2013-01-05 03:53:00,
2013-01-04 20:08:00,38.5,34.0,30.19,South,173,0.0,-999.0,84,-99.99,,,0.00,weatherlink.com 1.10,2013-01-05 04:08:00,
2013-01-04 20:23:00,37.9,34.0,30.19,South,173,0.0,-999.0,85,-99.99,,,0.00,weatherlink.com 1.10,2013-01-05 04:23:00,
2013-01-04 20:38:00,37.3,34.0,30.19,South,174,0.0,-999.0,86,-99.99,,,0.00,weatherlink.com 1.10,2013-01-05 04:38:00,
2013-01-04 20:53:00,36.9,33.0,30.20,South,175,0.0,-999.0,87,-99.99,,,0.00,weatherlink.com 1.10,2013-01-05 04:53:00,
2013-01-04 21:08:00,36.5,33.0,30.20,South,175,0.0,-999.0,87,-99.99,,,0.00,weatherlink.com 1.10,2013-01-05 05:08:00,
2013-01-04 21:23:00,36.0,33.0,30.20,South,175,0.0,-999.0,88,-99.99,,,0.00,weatherlink.com 1.10,2013-01-05 05:23:00,
2013-01-04 21:38:00,36.0,33.0,30.20,South,175,0.0,-999.0,89,-99.99,,,0.00,weatherlink.com 1.10,2013-01-05 05:38:00,
2013-01-04 21:53:00,35.6,33.0,30.21,South,176,0.0,-999.0,89,-99.99,,,0.00,weatherlink.com 1.10,2013-01-05 05:53:00,
2013-01-04 22:08:00,35.2,32.0,30.21,South,176,0.0,-999.0,89,-99.99,,,0.00,weatherlink.com 1.10,2013-01-05 06:08:00,
2013-01-04 22:23:00,34.7,32.0,30.21,South,176,0.0,-999.0,89,-99.99,,,0.00,weatherlink.com 1.10,2013-01-05 06:23:00,
2013-01-04 22:38:00,34.6,32.0,30.22,South,177,0.0,-999.0,90,-99.99,,,0.00,weatherlink.com 1.10,2013-01-05 06:38:00,
2013-01-04 22:53:00,34.3,32.0,30.22,South,178,0.0,-999.0,90,-99.99,,,0.00,weatherlink.com 1.10,2013-01-05 06:53:00,
2013-01-04 23:08:00,34.0,31.0,30.22,South,178,0.0,-999.0,90,-99.99,,,0.00,weatherlink.com 1.10,2013-01-05 07:08:00,
2013-01-04 23:23:00,33.7,31.0,30.21,South,178,0.0,-999.0,90,-99.99,,,0.00,weatherlink.com 1.10,2013-01-05 07:23:00,
2013-01-04 23:38:00,33.5,31.0,30.21,South,178,0.0,-999.0,91,-99.99,,,0.00,weatherlink.com 1.10,2013-01-05 07:38:00,
2013-01-04 23:53:00,33.2,31.0,30.20,South,178,0.0,-999.0,91,-99.99,,,0.00,weatherlink.com 1.10,2013-01-05 07:53:00,